CW7549 Weather Reports


time (UTC)temp
C
wind
direction
speed
KPH
gust
KPH
rain 1hr
cm
rain 24hr
cm
rain mn
cm
humidity
%
barometer
mb
20260503192310 12 194 0.0 3.2 0.00 0.00 0.05 87 1007.2
20260503191304 12 194 0.0 3.2 0.00 0.00 0.05 87 1007.2
20260503190259 12 194 3.2 4.8 0.00 0.00 0.05 87 1007.2
20260503185306 12 194 0.0 3.2 0.00 0.00 0.05 87 1007.0
20260503184258 12 194 1.6 1.6 0.00 0.00 0.05 87 1006.9
20260503183314 12 194 0.0 6.4 0.00 0.00 0.05 87 1007.0
20260503182304 12 194 3.2 4.8 0.00 0.00 0.05 87 1006.9
20260503181301 12 194 3.2 6.4 0.00 0.00 0.05 87 1006.9
20260503180318 12 194 3.2 6.4 0.00 0.00 0.05 87 1006.9
20260503175309 13 194 1.6 9.7 0.00 0.00 0.05 86 1006.9
20260503174328 13 194 0.0 6.4 0.00 0.00 0.05 86 1006.9
20260503173303 13 194 1.6 6.4 0.00 0.00 0.05 86 1006.9
20260503172312 13 194 1.6 8.0 0.00 0.00 0.05 86 1006.9
20260503171307 13 194 1.6 8.0 0.00 0.00 0.05 85 1006.9
20260503170319 13 194 1.6 8.0 0.00 0.00 0.05 86 1006.9
20260503150306 14 207 6.4 14.5 0.00 0.00 0.05 87 1006.7
20260503140252 13 198 0.0 8.0 0.00 0.00 0.05 91 1006.9
20260503131312 12 198 6.4 9.7 0.00 0.00 0.05 93 1007.0
20260503130303 12 198 9.7 11.3 0.00 0.00 0.05 93 1007.0
20260503110257 12 53 1.6 6.4 0.00 0.00 0.05 94 1007.0